| time (UTC) | temp F | wind direction | speed MPH | gust MPH | rain 1hr in | rain 24hr in | rain mn in | humidity % | barometer mb |
| 20260502152025 | 69 | 27 | 1.0 | 7.0 | 0.00 | 0.00 | 0.00 | 84 | 1021.8 |
| 20260502151024 | 69 | 23 | 0.0 | 5.0 | 0.00 | 0.00 | 0.00 | 84 | 1022.0 |
| 20260502130705 | 70 | 27 | 2.0 | 9.0 | 0.00 | 0.00 | 0.00 | 82 | 1022.5 |
| 20260502123612 | 69 | 14 | 1.0 | 8.0 | 0.00 | 0.00 | 0.00 | 83 | 1022.8 |
| 20260502120424 | 70 | 1 | 1.0 | 8.0 | 0.00 | 0.00 | 0.00 | 83 | 1023.0 |
| 20260502114219 | 70 | 39 | 0.0 | 7.0 | 0.00 | 0.00 | 0.00 | 83 | 1023.0 |
| 20260502113231 | 70 | 68 | 1.0 | 6.0 | 0.00 | 0.00 | 0.00 | 83 | 1022.9 |
| 20260502112157 | 70 | 25 | 0.0 | 5.0 | 0.00 | 0.00 | 0.00 | 83 | 1023.0 |
| 20260502111210 | 70 | 59 | 0.0 | 5.0 | 0.00 | 0.00 | 0.00 | 83 | 1023.0 |
| 20260502110209 | 70 | 35 | 0.0 | 5.0 | 0.00 | 0.00 | 0.00 | 83 | 1023.0 |
| 20260502105233 | 71 | 43 | 1.0 | 7.0 | 0.00 | 0.00 | 0.00 | 83 | 1022.9 |
| 20260502104200 | 71 | 40 | 2.0 | 8.0 | 0.00 | 0.00 | 0.00 | 83 | 1022.9 |
| 20260502103152 | 71 | 44 | 3.0 | 9.0 | 0.00 | 0.00 | 0.00 | 83 | 1022.8 |
| 20260502102147 | 71 | 15 | 3.0 | 12.0 | 0.00 | 0.00 | 0.00 | 83 | 1022.7 |
| 20260502101146 | 72 | 26 | 4.0 | 12.0 | 0.00 | 0.00 | 0.00 | 82 | 1022.5 |
| 20260502100144 | 72 | 50 | 4.0 | 10.0 | 0.00 | 0.00 | 0.00 | 82 | 1022.4 |
| 20260502090917 | 72 | 19 | 5.0 | 13.0 | 0.00 | 0.00 | 0.00 | 81 | 1022.3 |
| 20260502071055 | 73 | 23 | 6.0 | 14.0 | 0.00 | 0.00 | 0.00 | 78 | 1021.7 |
| 20260502070023 | 73 | 49 | 5.0 | 13.0 | 0.00 | 0.00 | 0.00 | 77 | 1021.6 |
| 20260502065021 | 73 | 51 | 6.0 | 13.0 | 0.00 | 0.00 | 0.00 | 76 | 1021.6 |
| 20260502061803 | 74 | 46 | 6.0 | 12.0 | 0.00 | 0.00 | 0.00 | 78 | 1021.5 |
| 20260502055610 | 74 | 51 | 5.0 | 11.0 | 0.00 | 0.00 | 0.00 | 78 | 1021.3 |
| 20260502054630 | 74 | 41 | 5.0 | 12.0 | 0.00 | 0.00 | 0.00 | 78 | 1021.4 |
| 20260502053614 | 75 | 62 | 5.0 | 12.0 | 0.00 | 0.00 | 0.00 | 77 | 1021.4 |
| 20260502052551 | 75 | 41 | 6.0 | 12.0 | 0.00 | 0.00 | 0.00 | 77 | 1021.3 |
| 20260502051552 | 75 | 52 | 6.0 | 13.0 | 0.00 | 0.00 | 0.00 | 77 | 1021.3 |
| 20260502050548 | 75 | 77 | 6.0 | 13.0 | 0.00 | 0.00 | 0.00 | 77 | 1021.5 |
| 20260502044426 | 75 | 105 | 4.0 | 11.0 | 0.00 | 0.00 | 0.00 | 80 | 1021.5 |
| 20260502043414 | 75 | 62 | 5.0 | 11.0 | 0.00 | 0.00 | 0.00 | 82 | 1021.6 |
| 20260502042406 | 75 | 41 | 4.0 | 13.0 | 0.00 | 0.00 | 0.00 | 82 | 1021.6 |
| 20260502041407 | 74 | 75 | 5.0 | 13.0 | 0.00 | 0.00 | 0.00 | 81 | 1021.6 |
| 20260502040414 | 75 | 101 | 3.0 | 12.0 | 0.00 | 0.00 | 0.00 | 80 | 1021.7 |
| 20260502034309 | 76 | 50 | 4.0 | 10.0 | 0.00 | 0.00 | 0.00 | 79 | 1021.9 |
| 20260502033316 | 76 | 39 | 3.0 | 9.0 | 0.00 | 0.00 | 0.00 | 77 | 1021.9 |
| 20260502032330 | 76 | 77 | 4.0 | 9.0 | 0.00 | 0.00 | 0.00 | 76 | 1022.0 |
| 20260502031258 | 77 | 30 | 4.0 | 13.0 | 0.00 | 0.00 | 0.00 | 74 | 1022.1 |
| 20260502030304 | 77 | 41 | 5.0 | 13.0 | 0.00 | 0.00 | 0.00 | 71 | 1022.2 |
| 20260502025255 | 77 | 49 | 6.0 | 12.0 | 0.00 | 0.00 | 0.00 | 72 | 1022.4 |
| 20260502024316 | 76 | 44 | 6.0 | 12.0 | 0.00 | 0.00 | 0.00 | 72 | 1022.5 |
| 20260502023332 | 75 | 41 | 5.0 | 12.0 | 0.00 | 0.00 | 0.00 | 74 | 1022.7 |
| 20260502022350 | 75 | 47 | 6.0 | 13.0 | 0.00 | 0.00 | 0.00 | 76 | 1022.9 |
| 20260502015230 | 74 | 37 | 4.0 | 10.0 | 0.00 | 0.00 | 0.00 | 78 | 1023.5 |
| 20260502014252 | 74 | 44 | 3.0 | 8.0 | 0.00 | 0.00 | 0.00 | 80 | 1023.8 |
| 20260502012202 | 73 | 22 | 3.0 | 9.0 | 0.00 | 0.00 | 0.00 | 81 | 1024.2 |
| 20260502011210 | 73 | 70 | 3.0 | 12.0 | 0.00 | 0.00 | 0.00 | 82 | 1024.3 |
| 20260502010157 | 73 | 18 | 4.0 | 12.0 | 0.00 | 0.00 | 0.00 | 81 | 1024.4 |
| 20260502005206 | 73 | 60 | 3.0 | 8.0 | 0.00 | 0.00 | 0.00 | 81 | 1024.6 |
| 20260502003001 | 72 | 36 | 4.0 | 8.0 | 0.00 | 0.00 | 0.00 | 84 | 1024.9 |
| 20260502002024 | 72 | 30 | 2.0 | 6.0 | 0.00 | 0.00 | 0.00 | 84 | 1025.0 |
| 20260502001038 | 72 | 18 | 1.0 | 6.0 | 0.00 | 0.00 | 0.00 | 83 | 1025.1 |
| 20260502000036 | 72 | 49 | 1.0 | 13.0 | 0.00 | 0.00 | 0.00 | 83 | 1025.1 |
| 20260501233922 | 74 | 51 | 1.0 | 9.0 | 0.00 | 0.00 | 0.00 | 80 | 1025.2 |
| 20260501232906 | 73 | 352 | 0.0 | 4.0 | 0.00 | 0.00 | 0.00 | 85 | 1025.1 |
| 20260501230809 | 70 | 40 | 0.0 | 3.0 | 0.00 | 0.00 | 0.00 | 89 | 1025.1 |
| 20260501225754 | 70 | 31 | 0.0 | 2.0 | 0.00 | 0.00 | 0.00 | 90 | 1025.0 |
| 20260501224731 | 69 | 334 | 0.0 | 0.0 | 0.00 | 0.00 | 0.00 | 91 | 1024.9 |
| 20260501223740 | 69 | 334 | 0.0 | 0.0 | 0.00 | 0.00 | 0.00 | 93 | 1024.9 |
| 20260501222711 | 69 | 334 | 0.0 | 0.0 | 0.00 | 0.00 | 0.00 | 92 | 1024.9 |
| 20260501221722 | 69 | 334 | 0.0 | 0.0 | 0.00 | 0.00 | 0.00 | 94 | 1025.0 |
| 20260501215642 | 68 | 334 | 0.0 | 0.0 | 0.00 | 0.00 | 0.00 | 95 | 1024.9 |
| 20260501214644 | 67 | 251 | 0.0 | 0.0 | 0.00 | 0.00 | 0.00 | 95 | 1024.9 |
| 20260501213700 | 66 | 251 | 0.0 | 0.0 | 0.00 | 0.00 | 0.00 | 95 | 1024.9 |
| 20260501211536 | 66 | 251 | 0.0 | 0.0 | 0.00 | 0.00 | 0.00 | 96 | 1025.0 |
| 20260501210505 | 65 | 250 | 0.0 | 0.0 | 0.00 | 0.00 | 0.00 | 95 | 1024.8 |
| 20260501204322 | 64 | 250 | 0.0 | 0.0 | 0.00 | 0.00 | 0.00 | 95 | 1024.7 |
| 20260501203338 | 64 | 250 | 0.0 | 0.0 | 0.00 | 0.00 | 0.00 | 95 | 1024.7 |
| 20260501202319 | 64 | 250 | 0.0 | 0.0 | 0.00 | 0.00 | 0.00 | 95 | 1024.6 |
| 20260501200238 | 64 | 256 | 0.0 | 0.0 | 0.00 | 0.00 | 0.00 | 94 | 1024.4 |
| 20260501195227 | 64 | 256 | 0.0 | 0.0 | 0.00 | 0.00 | 0.00 | 94 | 1024.4 |
| 20260501193113 | 65 | 256 | 0.0 | 1.0 | 0.00 | 0.00 | 0.00 | 94 | 1024.3 |
| 20260501192040 | 65 | 256 | 0.0 | 1.0 | 0.00 | 0.00 | 0.00 | 94 | 1024.1 |
| 20260501191042 | 65 | 256 | 0.0 | 1.0 | 0.00 | 0.00 | 0.00 | 94 | 1024.1 |
| 20260501190100 | 65 | 261 | 0.0 | 0.0 | 0.00 | 0.00 | 0.00 | 94 | 1024.1 |
| 20260501185118 | 65 | 261 | 0.0 | 0.0 | 0.00 | 0.00 | 0.00 | 94 | 1024.2 |
| 20260501184103 | 65 | 261 | 0.0 | 0.0 | 0.00 | 0.00 | 0.00 | 94 | 1024.1 |
| 20260501181931 | 65 | 320 | 0.0 | 0.0 | 0.00 | 0.00 | 0.00 | 93 | 1024.0 |
| 20260501180915 | 65 | 320 | 0.0 | 0.0 | 0.00 | 0.00 | 0.00 | 93 | 1024.0 |
| 20260501174812 | 66 | 320 | 0.0 | 0.0 | 0.00 | 0.00 | 0.00 | 92 | 1024.0 |
| 20260501173801 | 66 | 321 | 0.0 | 0.0 | 0.00 | 0.00 | 0.00 | 92 | 1024.1 |
| 20260501172810 | 66 | 320 | 0.0 | 0.0 | 0.00 | 0.00 | 0.00 | 92 | 1024.1 |
| 20260501171747 | 66 | 321 | 0.0 | 0.0 | 0.00 | 0.00 | 0.00 | 92 | 1024.1 |
| 20260501170812 | 66 | 321 | 0.0 | 0.0 | 0.00 | 0.00 | 0.00 | 92 | 1024.1 |
| 20260501165805 | 67 | 320 | 0.0 | 1.0 | 0.00 | 0.00 | 0.00 | 92 | 1024.2 |
| 20260501164818 | 67 | 320 | 0.0 | 0.0 | 0.00 | 0.00 | 0.00 | 92 | 1024.3 |
| 20260501163818 | 67 | 320 | 0.0 | 0.0 | 0.00 | 0.00 | 0.00 | 92 | 1024.4 |
| 20260501162812 | 67 | 321 | 0.0 | 2.0 | 0.00 | 0.00 | 0.00 | 92 | 1024.6 |
| 20260501161801 | 67 | 321 | 0.0 | 2.0 | 0.00 | 0.00 | 0.00 | 92 | 1024.7 |
| 20260501160745 | 67 | 349 | 0.0 | 1.0 | 0.00 | 0.00 | 0.00 | 92 | 1024.8 |
| 20260501155740 | 67 | 321 | 0.0 | 0.0 | 0.00 | 0.00 | 0.00 | 92 | 1024.8 |
| 20260501154719 | 67 | 337 | 0.0 | 3.0 | 0.00 | 0.00 | 0.00 | 92 | 1024.9 |
| 20260501153647 | 67 | 354 | 0.0 | 5.0 | 0.00 | 0.00 | 0.00 | 92 | 1025.1 |